星链-4420 (STARLINK-4420 )

导读

STARLINK-4420是美国太空探索技术公司(SpaceX)于2022年8月31日发射的星链(Starlink)卫星,归属星链v1.5批次。它部署在近地轨道,轨道倾角约43度,轨道高度约559千米,为星链星座全球高速低延迟互联网覆盖提供网络支撑。该卫星配备星间激光通信设备,支持星间路由,可服务偏远地区宽带接入、应急通信等场景,服役后按计划通过自主变轨完成任务,退役后会再入大气层焚毁。

Basic Information
目录编号:
53654
目录名称:
STARLINK-4420
国际标识:
2022-105G
轨道中心:
EARTH
卫星名称:
星链-4420
卫星全名:
星链-4420 (STARLINK-4420 )
卫星状态:
在轨 (已飞行1382 天)
发射日期:
2022-08-31 UTC
国别 :
美国 (US)
星等 :
--
Orbit Information
数据来源 国际轨道数据 AOE轨道数据
星历时间 2026-06-13T23:18:50+0800
5小时前
查看轨道信息
2026-06-14T02:00:00+0800
3小时前
查看轨道信息
半长轴 6927.626km 6927.635km
偏心率 0.0001953 0.0001461
轨道倾角 97.365° 97.367°
近地点辐角 87.679° 94.072°
升交点赤经 44.875° 44.980°
平近点角 272.466° 152.349°
近地点 548.136km 548.485km
远地点 550.842km 550.511km
周期 95.639分钟 95.639分钟
每日圈数 15.056574 15.056543
Detailed Information
固有亮度:
5
最大亮度:
2.5
卫星平台:
Starlink v1.5
覆盖范围:
全球
运营商:
太空探索技术公司
运营商所在国:
美国
制造商(研发单位):
太空探索技术公司
制造商所在国:
美国
使用方式:
暂无
Satellite Introduction
星链(Starlink)计划是由太空探索技术公司(SpaceX)提出的一个巨型低轨卫星互联网星座项目,计划在2019年至2024年间在太空搭建由约1.2万颗卫星组成的“星链”网络,其中1584颗将部署在地球上空550千米处的近地轨道,并从2020年开始工作。该卫星仍在工作。
2D Orbit Map
3D Orbit Map
Orbit Altitude Analysis Chart
Orbit Inclination Analysis Chart
Orbit Comprehensive Analysis Chart
View Comprehensive Chart